Weather History for Evergreen, AL

Change the Weather History Date:

Wednesday, May 22, 2013

  Actual Average (KPRN) Record (KPRN)
Temperature  
Mean Temperature 74 °F -  
Max Temperature 84 °F 84 °F 97 °F (1956)
Min Temperature 66 °F 61 °F 45 °F (1993)
Cooling Degree Days 9    
Growing Degree Days 24 (Base 50)    
Moisture  
Dew Point 68 °F    
Average Humidity 82    
Maximum Humidity 94    
Minimum Humidity 58    
Precipitation  
Precipitation 0.02 in - - ()
Sea Level Pressure  
Sea Level Pressure 29.97 in    
Wind  
Wind Speed 2 mph (SW)    
Max Wind Speed 14 mph    
Max Gust Speed 25 mph    
Visibility 7 miles    
Events Fog , Rain , Thunderstorm    
Averages and records for this station are not official NWS values.
T = Trace of Precipitation, MM = Missing Value Source: NWS Daily Summary

Daily Weather History Graph

Daily Weather History Graph

Search for Another Location

Airport:

Trip Planner

Search our weather history database for the weather conditions in past years. The results will help you decide how hot, cold, wet, or windy it might be!

Date:

Astronomy

May. 22, 2013 Rise Set
Actual Time 5:47 AM CDT 7:42 PM CDT
Civil Twilight 5:20 AM CDT 8:09 PM CDT
Nautical Twilight 4:48 AM CDT 8:42 PM CDT
Astronomical Twilight 4:13 AM CDT 9:17 PM CDT
Moon 5:11 PM CDT (5/22) 3:41 AM CDT (5/22)
Length of Visible Light 14h 48m
Length of Day
13h 54m
Waxing Gibbous, 91% of the Moon is Illuminated
May 22
Waxing Gibbous
May 24
Full
May 31
Last Quarter
Jun 8
New
Jun 16
First Quarter

Hourly Weather History & Observations

Time (CDT) Temp. Heat Index Dew Point Humidity Pressure Visibility Wind Dir Wind Speed Gust Speed Precip Events Conditions
12:53 AM 68.0 °F - 64.0 °F 87% 29.96 in 7.0 mi Calm Calm - N/A   Clear
1:41 AM 66.2 °F - 64.4 °F 94% 29.96 in 8.0 mi Calm Calm - N/A   Scattered Clouds
1:50 AM 66.2 °F - 64.4 °F 94% 29.96 in 6.0 mi Calm Calm - N/A   Mostly Cloudy
1:53 AM 66.0 °F - 64.0 °F 93% 29.95 in 6.0 mi Calm Calm - N/A   Mostly Cloudy
2:22 AM 68.0 °F - 64.4 °F 88% 29.96 in 9.0 mi Calm Calm - N/A   Overcast
2:53 AM 69.1 °F - 66.0 °F 90% 29.94 in 7.0 mi Calm Calm - N/A   Overcast
3:20 AM 69.8 °F - 66.2 °F 88% 29.95 in 1.8 mi Calm Calm - N/A   Overcast
3:30 AM 69.8 °F - 66.2 °F 88% 29.96 in 0.2 mi Calm Calm - N/A Fog Fog
3:53 AM 69.1 °F - 66.9 °F 93% 29.95 in 0.5 mi Calm Calm - N/A Fog Fog
4:53 AM 69.1 °F - 66.9 °F 93% 29.96 in 0.5 mi Calm Calm - N/A Fog Fog
5:49 AM 69.8 °F - 68.0 °F 94% 29.96 in 2.0 mi Calm Calm - N/A   Overcast
5:50 AM 70.0 °F - 68.0 °F 93% 29.95 in 2.5 mi Calm Calm - N/A   Overcast
5:57 AM 69.8 °F - 68.0 °F 94% 29.96 in 5.0 mi WSW 4.6 mph - N/A   Mostly Cloudy
6:09 AM 69.8 °F - 68.0 °F 94% 29.96 in 6.0 mi WSW 5.8 mph - N/A   Scattered Clouds
6:17 AM 71.6 °F - 69.8 °F 94% 29.97 in 6.0 mi WSW 4.6 mph - N/A   Mostly Cloudy
6:28 AM 71.6 °F - 69.8 °F 94% 29.97 in 3.0 mi West 3.5 mph - N/A   Mostly Cloudy
6:36 AM 71.6 °F - 69.8 °F 94% 29.98 in 2.0 mi Calm Calm - N/A   Overcast
6:50 AM 71.6 °F - 69.8 °F 94% 29.98 in 4.0 mi Calm Calm - N/A   Overcast
6:53 AM 72.0 °F - 70.0 °F 93% 29.97 in 4.0 mi Calm Calm - N/A   Overcast
7:13 AM 73.4 °F - 69.8 °F 88% 29.98 in 6.0 mi Calm Calm - N/A   Overcast
7:53 AM 73.0 °F - 69.1 °F 87% 29.98 in 9.0 mi ESE 4.6 mph - N/A   Overcast
8:28 AM 75.2 °F - 69.8 °F 83% 30.01 in 10.0 mi Calm Calm - N/A   Overcast
8:53 AM 75.9 °F - 69.1 °F 79% 30.01 in 10.0 mi Calm Calm - N/A   Overcast
9:11 AM 77.0 °F - 69.8 °F 78% 30.02 in 10.0 mi Calm Calm - N/A   Mostly Cloudy
9:53 AM 78.1 °F - 68.0 °F 71% 30.01 in 10.0 mi Calm Calm - N/A   Mostly Cloudy
10:06 AM 80.6 °F 83.9 °F 69.8 °F 70% 30.02 in 10.0 mi Variable 3.5 mph - N/A   Scattered Clouds
10:53 AM 81.0 °F 83.8 °F 68.0 °F 65% 30.02 in 10.0 mi Variable 5.8 mph - N/A   Scattered Clouds
11:49 AM 82.4 °F 84.6 °F 66.2 °F 58% 30.01 in 10.0 mi WSW 10.4 mph - N/A Thunderstorm Thunderstorm
11:53 AM 82.0 °F 84.9 °F 68.0 °F 62% 30.01 in 10.0 mi WSW 13.8 mph 25.3 mph 0.00 in Rain , Thunderstorm Light Thunderstorms and Rain
12:08 PM 73.4 °F - 66.2 °F 78% 30.01 in 3.0 mi SW 4.6 mph - 0.00 in Rain Rain
12:34 PM 75.2 °F - 69.8 °F 83% 29.99 in 10.0 mi South 5.8 mph - N/A Thunderstorm Partly Cloudy
12:49 PM 77.0 °F - 71.6 °F 83% 29.98 in 10.0 mi SW 4.6 mph - N/A   Clear
12:53 PM 78.1 °F - 70.0 °F 76% 29.97 in 10.0 mi SSW 4.6 mph - N/A   Clear
1:53 PM 82.0 °F 84.9 °F 68.0 °F 62% 29.95 in 10.0 mi SE 5.8 mph - N/A   Partly Cloudy
2:53 PM 80.1 °F 82.7 °F 68.0 °F 67% 29.94 in 10.0 mi SSW 4.6 mph - N/A   Partly Cloudy
3:53 PM 81.0 °F 84.1 °F 69.1 °F 67% 29.91 in 10.0 mi SSW 3.5 mph - 0.01 in   Scattered Clouds
4:53 PM 82.9 °F 85.8 °F 68.0 °F 60% 29.91 in 10.0 mi SSW 5.8 mph - N/A   Clear
5:53 PM 82.0 °F 85.9 °F 70.0 °F 67% 29.91 in 10.0 mi WSW 3.5 mph - 0.01 in   Clear
6:53 PM 82.0 °F 85.9 °F 70.0 °F 67% 29.92 in 10.0 mi WSW 4.6 mph - N/A   Clear
7:53 PM 78.1 °F - 69.1 °F 74% 29.94 in 10.0 mi West 3.5 mph - N/A   Scattered Clouds
8:53 PM 75.0 °F - 69.1 °F 82% 29.95 in 10.0 mi Calm Calm - N/A   Scattered Clouds
9:53 PM 75.9 °F - 64.0 °F 67% 29.97 in 10.0 mi WSW 5.8 mph - 0.00 in   Overcast
10:53 PM 73.0 °F - 64.0 °F 73% 29.98 in 10.0 mi WSW 4.6 mph - N/A   Clear
11:53 PM 69.1 °F - 64.9 °F 87% 29.96 in 10.0 mi Calm Calm - N/A   Clear